| time (UTC) | temp C | wind direction | speed KPH | gust KPH | rain 1hr cm | rain 24hr cm | rain mn cm | humidity % | barometer mb |
| 20260510063049 | 8 | 278 | 0.0 | 0.0 | 0.00 | 0.58 | 0.03 | 1011.4 | |
| 20260510061602 | 8 | 278 | 0.0 | 0.0 | 0.00 | 0.58 | 0.03 | 1011.3 | |
| 20260510060108 | 8 | 277 | 0.0 | 0.0 | 0.00 | 0.58 | 0.03 | 100 | 1011.4 |
| 20260510054513 | 8 | 277 | 0.0 | 0.0 | 0.03 | 0.58 | 0.03 | 100 | 1011.5 |
| 20260510053026 | 8 | 277 | 0.0 | 0.0 | 0.03 | 0.58 | 0.03 | 100 | 1011.2 |
| 20260510051548 | 8 | 272 | 0.0 | 0.0 | 0.03 | 0.58 | 0.03 | 100 | 1011.2 |
| 20260510050038 | 8 | 272 | 0.0 | 0.0 | 0.03 | 0.58 | 0.03 | 1 | 1011.1 |
| 20260510044616 | 8 | 272 | 0.0 | 0.0 | 0.00 | 0.56 | 0.00 | 1 | 1011.1 |
| 20260510043055 | 7 | 272 | 0.0 | 0.0 | 0.00 | 0.56 | 0.00 | 1 | 1011.3 |
| 20260510041506 | 7 | 272 | 0.0 | 0.0 | 0.00 | 0.56 | 0.00 | 2 | 1011.4 |
| 20260510040027 | 7 | 272 | 0.0 | 0.0 | 0.00 | 0.56 | 0.00 | 2 | 1011.3 |
| 20260510034546 | 7 | 272 | 0.0 | 0.0 | 0.00 | 0.56 | 0.00 | 2 | 1011.1 |
| 20260510033058 | 6 | 272 | 0.0 | 0.0 | 0.00 | 0.56 | 0.00 | 3 | 1011.0 |
| 20260510031507 | 7 | 272 | 0.0 | 0.0 | 0.00 | 0.56 | 0.00 | 3 | 1011.4 |
| 20260510030018 | 7 | 272 | 0.0 | 0.0 | 0.00 | 0.56 | 0.00 | 3 | 1011.5 |
| 20260510024525 | 7 | 272 | 0.0 | 0.0 | 0.00 | 0.56 | 0.00 | 3 | 1011.5 |
| 20260510023020 | 8 | 272 | 0.0 | 0.0 | 0.00 | 0.56 | 0.00 | 3 | 1011.7 |
| 20260510021528 | 8 | 272 | 0.0 | 0.0 | 0.00 | 0.56 | 0.00 | 3 | 1011.7 |
| 20260510020039 | 8 | 272 | 0.0 | 0.0 | 0.00 | 0.56 | 0.00 | 3 | 1011.7 |
| 20260510014550 | 8 | 272 | 0.0 | 0.0 | 0.00 | 0.56 | 0.00 | 2 | 1011.6 |
| 20260510013101 | 9 | 272 | 0.0 | 0.0 | 0.00 | 0.56 | 0.00 | 2 | 1011.6 |
| 20260510011505 | 10 | 272 | 0.0 | 0.0 | 0.00 | 0.56 | 0.00 | 2 | 1011.6 |
| 20260510010024 | 10 | 272 | 0.0 | 0.0 | 0.00 | 0.56 | 0.00 | 2 | 1011.7 |
| 20260510004531 | 10 | 272 | 0.0 | 0.0 | 0.00 | 0.56 | 0.00 | 2 | 1011.8 |
| 20260510003053 | 10 | 272 | 0.0 | 0.0 | 0.00 | 0.56 | 0.00 | 2 | 1012.1 |
| 20260510001552 | 11 | 272 | 0.0 | 0.0 | 0.00 | 0.56 | 0.00 | 2 | 1012.0 |
| 20260510000015 | 11 | 272 | 0.0 | 0.0 | 0.00 | 0.56 | 0.00 | 2 | 1012.1 |
| 20260509234549 | 11 | 272 | 0.0 | 0.0 | 0.00 | 0.56 | 0.00 | 2 | 1012.5 |
| 20260509233050 | 11 | 272 | 0.0 | 0.0 | 0.00 | 0.56 | 0.00 | 3 | 1012.4 |
| 20260509231614 | 11 | 272 | 0.0 | 0.0 | 0.00 | 0.56 | 0.00 | 3 | 1012.6 |
| 20260509230017 | 11 | 272 | 0.0 | 0.0 | 0.00 | 0.56 | 0.00 | 3 | 1012.7 |
| 20260509224533 | 11 | 272 | 0.0 | 0.0 | 0.00 | 0.56 | 0.00 | 3 | 1012.7 |
| 20260509223050 | 11 | 272 | 0.0 | 0.0 | 0.00 | 0.56 | 0.00 | 3 | 1012.6 |
| 20260509221603 | 11 | 272 | 0.0 | 0.0 | 0.00 | 0.56 | 0.00 | 4 | 1012.6 |
| 20260509220056 | 11 | 272 | 0.0 | 0.0 | 0.00 | 0.56 | 0.00 | 4 | 1012.6 |
| 20260509214511 | 11 | 272 | 0.0 | 0.0 | 0.00 | 0.56 | 0.56 | 5 | 1012.5 |
| 20260509213029 | 11 | 272 | 0.0 | 0.0 | 0.00 | 0.56 | 0.56 | 5 | 1012.5 |
| 20260509211550 | 11 | 272 | 0.0 | 0.0 | 0.00 | 0.56 | 0.56 | 6 | 1012.4 |
| 20260509210106 | 11 | 272 | 0.0 | 0.0 | 0.00 | 0.56 | 0.56 | 6 | 1012.3 |
| 20260509204610 | 11 | 272 | 0.0 | 0.0 | 0.00 | 0.56 | 0.56 | 7 | 1012.2 |
| 20260509203035 | 11 | 272 | 0.0 | 0.0 | 0.00 | 0.56 | 0.56 | 8 | 1011.8 |
| 20260509201529 | 11 | 272 | 0.0 | 0.0 | 0.00 | 0.56 | 0.56 | 8 | 1011.3 |
| 20260509200020 | 11 | 272 | 0.0 | 0.0 | 0.00 | 0.56 | 0.56 | 8 | 1011.2 |
| 20260509194558 | 12 | 272 | 0.0 | 0.0 | 0.00 | 0.56 | 0.56 | 9 | 1010.9 |
| 20260509193014 | 12 | 272 | 0.0 | 0.0 | 0.03 | 0.56 | 0.56 | 9 | 1010.8 |
| 20260509191535 | 12 | 272 | 0.0 | 0.0 | 0.05 | 0.56 | 0.56 | 10 | 1010.4 |
| 20260509190059 | 12 | 272 | 0.0 | 0.0 | 0.15 | 0.56 | 0.56 | 11 | 1010.2 |
| 20260509184512 | 12 | 272 | 0.0 | 0.0 | 0.28 | 0.56 | 0.56 | 11 | 1010.1 |
| 20260509183030 | 12 | 272 | 0.0 | 0.0 | 0.38 | 0.53 | 0.53 | 12 | 1010.1 |
| 20260509181611 | 12 | 272 | 0.0 | 0.0 | 0.33 | 0.51 | 0.51 | 13 | 1009.8 |
| 20260509180017 | 12 | 272 | 0.0 | 0.0 | 0.23 | 0.41 | 0.41 | 14 | 1009.8 |
| 20260509174527 | 12 | 272 | 0.0 | 0.0 | 0.15 | 0.28 | 0.28 | 16 | 1010.0 |
| 20260509173044 | 12 | 272 | 0.0 | 0.0 | 0.15 | 0.15 | 0.15 | 18 | 1010.3 |
| 20260509171608 | 12 | 272 | 0.0 | 0.0 | 0.15 | 0.15 | 0.15 | 21 | 1010.6 |
| 20260509170013 | 12 | 272 | 0.0 | 0.0 | 0.15 | 0.15 | 0.15 | 24 | 1011.0 |
| 20260509164522 | 13 | 259 | 0.0 | 0.0 | 0.13 | 0.13 | 0.13 | 26 | 1011.3 |
| 20260509163034 | 13 | 252 | 0.0 | 0.0 | 0.03 | 0.03 | 0.03 | 30 | 1011.4 |
| 20260509161529 | 13 | 265 | 0.0 | 0.0 | 0.00 | 0.00 | 0.00 | 39 | 1011.5 |
| 20260509160039 | 14 | 254 | 0.0 | 0.0 | 0.00 | 0.00 | 0.00 | 50 | 1011.5 |
| 20260509154620 | 14 | 40 | 0.0 | 0.0 | 0.00 | 0.00 | 0.00 | 54 | 1011.2 |
| 20260509153024 | 15 | 40 | 0.0 | 0.0 | 0.00 | 0.00 | 0.00 | 61 | 1010.0 |
| 20260509151534 | 15 | 40 | 0.0 | 0.0 | 0.00 | 0.00 | 0.00 | 66 | 1009.5 |
| 20260509150040 | 15 | 40 | 0.0 | 0.0 | 0.00 | 0.00 | 0.00 | 69 | 1009.6 |
| 20260509144547 | 16 | 64 | 0.0 | 0.0 | 0.00 | 0.00 | 0.00 | 72 | 1009.7 |
| 20260509143053 | 16 | 64 | 0.0 | 0.0 | 0.00 | 0.00 | 0.00 | 72 | 1009.9 |
| 20260509141553 | 16 | 64 | 0.0 | 0.0 | 0.00 | 0.00 | 0.00 | 72 | 1010.5 |
| 20260509140106 | 16 | 64 | 0.0 | 0.0 | 0.00 | 0.00 | 0.00 | 72 | 1010.7 |
| 20260509134510 | 16 | 64 | 0.0 | 0.0 | 0.00 | 0.00 | 0.00 | 72 | 1010.7 |
| 20260509133031 | 16 | 64 | 0.0 | 0.0 | 0.00 | 0.00 | 0.00 | 72 | 1010.9 |
| 20260509131535 | 16 | 207 | 0.0 | 0.0 | 0.00 | 0.00 | 0.00 | 72 | 1011.2 |
| 20260509130031 | 16 | 209 | 0.0 | 0.0 | 0.00 | 0.00 | 0.00 | 72 | 1011.1 |
| 20260509124537 | 16 | 192 | 0.0 | 0.0 | 0.00 | 0.00 | 0.00 | 72 | 1011.0 |
| 20260509123040 | 16 | 226 | 0.0 | 0.0 | 0.00 | 0.00 | 0.00 | 72 | 1011.1 |
| 20260509121601 | 16 | 229 | 0.0 | 0.0 | 0.00 | 0.00 | 0.00 | 72 | 1011.3 |
| 20260509120059 | 17 | 237 | 0.0 | 0.0 | 0.00 | 0.00 | 0.00 | 71 | 1011.7 |
| 20260509114609 | 17 | 259 | 0.0 | 0.0 | 0.00 | 0.00 | 0.00 | 70 | 1011.9 |
| 20260509113001 | 17 | 238 | 0.0 | 0.0 | 0.00 | 0.00 | 0.00 | 70 | 1011.9 |
| 20260509111502 | 17 | 203 | 0.0 | 0.0 | 0.00 | 0.00 | 0.00 | 69 | 1011.9 |
| 20260509110026 | 17 | 242 | 0.0 | 0.0 | 0.00 | 0.00 | 0.00 | 69 | 1011.9 |
| 20260509104540 | 18 | 217 | 0.0 | 0.0 | 0.00 | 0.00 | 0.00 | 67 | 1011.9 |
| 20260509103048 | 18 | 240 | 0.0 | 0.0 | 0.00 | 0.00 | 0.00 | 67 | 1012.1 |
| 20260509101550 | 18 | 202 | 0.0 | 0.0 | 0.00 | 0.00 | 0.00 | 68 | 1012.1 |
| 20260509100008 | 18 | 238 | 0.0 | 0.0 | 0.00 | 0.00 | 0.00 | 69 | 1012.2 |
| 20260509094522 | 17 | 157 | 0.0 | 0.0 | 0.00 | 0.00 | 0.00 | 70 | 1012.2 |
| 20260509093053 | 18 | 209 | 0.0 | 0.0 | 0.00 | 0.00 | 0.00 | 70 | 1012.0 |
| 20260509091601 | 17 | 34 | 0.0 | 0.0 | 0.00 | 0.00 | 0.00 | 71 | 1011.9 |
| 20260509090001 | 16 | 202 | 0.0 | 0.0 | 0.00 | 0.00 | 0.00 | 71 | 1012.1 |
| 20260509084530 | 16 | 214 | 0.0 | 0.0 | 0.00 | 0.00 | 0.00 | 70 | 1012.1 |
| 20260509083048 | 16 | 263 | 0.0 | 0.0 | 0.00 | 0.00 | 0.00 | 68 | 1012.0 |
| 20260509081539 | 15 | 144 | 0.0 | 0.0 | 0.00 | 0.00 | 0.00 | 62 | 1012.2 |
| 20260509080112 | 15 | 202 | 0.0 | 0.0 | 0.00 | 0.00 | 0.00 | 54 | 1012.2 |
| 20260509074513 | 14 | 68 | 0.0 | 0.0 | 0.00 | 0.00 | 0.00 | 32 | 1012.4 |
| 20260509073019 | 13 | 63 | 0.0 | 0.0 | 0.00 | 0.00 | 0.00 | 14 | 1012.6 |
| 20260509071524 | 12 | 304 | 0.0 | 0.0 | 0.00 | 0.00 | 0.00 | 5 | 1012.6 |
| 20260509070024 | 11 | 305 | 0.0 | 0.0 | 0.00 | 0.00 | 0.00 | 3 | 1012.7 |
| 20260509064539 | 11 | 245 | 0.0 | 0.0 | 0.00 | 0.00 | 0.00 | 2 | 1012.9 |